Skip Page Navigation
NASA JPL Caltech
NASA Logo - Jet Propulsion Laboratory + View the NASA Portal
+ Center for Near-Earth Object Studies
JPL Home Earth Solar System Stars & Galaxies Technology
JPL Solar System Dynamics
BODIES ORBITS EPHEMERIDES TOOLS PHYSICAL DATA DISCOVERY FAQ SITE MAP
IMPORTANT: The SSD Announcement email list is now available. Major changes are coming in the near future, including possible hostname and/or URL changes. To be notified of such changes, subscribe to this email list.

Please visit this page for more details.


JPL Small-Body Database Browser
Search: [ help ]  
109353 (2001 QS153)
Classification: Main-belt Asteroid          SPK-ID: 2109353
Ephemeris | Orbit Diagram | Orbital Elements | Mission Design | Physical Parameters | Discovery Circumstances ]

[ show orbit diagram ]
Orbital Elements at Epoch 2458600.5 (2019-Apr-27.0) TDB
Reference: JPL 12 (heliocentric ecliptic J2000)
 Element Value Uncertainty (1-sigma)   Units 
e .05360629500375325 6.101e-08  
a 2.98096568834804 2.7523e-08 au
q 2.821167162262389 1.7877e-07 au
i 8.629950536237372 6.7941e-06 deg
node 179.0430558351405 3.706e-05 deg
peri 156.5879086056478 6.7152e-05 deg
M 171.7663189231546 5.8381e-05 deg
tp 2457703.547591353404
(2016-Nov-11.04759135)
0.00030148 TDB
period 1879.896298279734
5.15
2.6036e-05
7.128e-08
d
yr
n .1914999249317267 2.6522e-09 deg/d
Q 3.140764214433692 2.8999e-08 au
  Orbit Determination Parameters
   # obs. used (total)      261  
   data-arc span      9095 days (24.90 yr)  
   first obs. used      1994-04-03  
   last obs. used      2019-02-26  
   planetary ephem.      DE431  
   SB-pert. ephem.      SB431-N16  
   condition code      0  
   norm. resid. RMS      .59442  
   source      ORB  
   producer      Otto Matic  
   solution date      2019-Jul-13 07:37:24  

Additional Information
 Earth MOID = 1.81367 au 
 Jupiter MOID = 2.09337 au 
 T_jup = 3.240 
[ show covariance matrix ]

Ephemeris | Orbit Diagram | Orbital Elements | Mission Design | Physical Parameters | Discovery Circumstances ]

Physical Parameter Table
Parameter Symbol Value Units Sigma Reference Notes
absolute magnitude H 15.9   n/a MPO436525  

109353 (2001 QS153)          Discovered 2001-Aug-26 by Ondrejov at Ondrejov
Reference: 20051019/Numbers.arcLast Updated: 2005-10-26
Ephemeris | Orbit Diagram | Orbital Elements | Mission Design | Physical Parameters | Discovery Circumstances ]
ABOUT SSD CREDITS/AWARDS PRIVACY/COPYRIGHT GLOSSARY LINKS
FirstGov 2019-Dec-11 03:17 UT
(server date/time)  
NASA Home Page
Site Manager:   Ryan S. Park
Webmaster  Alan B. Chamberlin